Riverside, CA

8:57 AM PST on December 15, 2017 (GMT -0800)
Riverside Municipal

Weather History for KRAL - January, 2013

Change the Weather History Date:

Thursday, January 17, 2013

  Actual Average Record
Temperature  
Mean Temperature 59 °F 55 °F  
Max Temperature 74 °F 67 °F 89 °F (1961)
Min Temperature 43 °F 43 °F 24 °F (2007)
Degree Days  
Heating Degree Days 6 10  
Month to date heating degree days 232 174  
Since 1 July heating degree days 675 700  
Cooling Degree Days 0 0  
Month to date cooling degree days 0 0  
Year to date cooling degree days 0 0  
Growing Degree Days 9 (Base 50)    
Moisture  
Dew Point 14 °F    
Average Humidity 27    
Maximum Humidity 45    
Minimum Humidity 9    
Precipitation  
Precipitation 0.00 in 0.10 in 1.15 in (1916)
Month to date precipitation 0.03 1.93  
Year to date precipitation 0.03 1.93  
Since 1 July precipitation 1.94  
Snow  
Snow 0.00 in - - ()
Month to date snowfall 0.0  
Year to date snowfall 0.0  
Snow Depth 0.00 in    
Sea Level Pressure  
Sea Level Pressure 30.12 in    
Wind  
Wind Speed 10 mph (ENE)    
Max Wind Speed 20 mph    
Max Gust Speed 31 mph    
Visibility 10 miles    
Events      
T = Trace of Precipitation, MM = Missing Value Source: NWS Daily Summary

Daily Weather History Graph

Daily Weather History Graph

Search for Another Location

Airport or City:

Trip Planner

Search our weather history database for the weather conditions in past years. The results will help you decide how hot, cold, wet, or windy it might be!

Date:

Astronomy

Jan. 17, 2013 Rise Set
Actual Time 6:54 AM PST 5:06 PM PST
Civil Twilight 6:27 AM PST 5:33 PM PST
Nautical Twilight 5:56 AM PST 6:03 PM PST
Astronomical Twilight 5:26 AM PST 6:33 PM PST
Moon 10:24 AM PST (1/17) 11:39 PM PST (1/17)
Length of Visible Light 11h 05m
Length of Day
10h 11m
Waxing Crescent, 39% of the Moon is Illuminated
Jan 17
Waxing Crescent
Jan 18
First Quarter
Jan 26
Full
Feb 3
Last Quarter
Feb 9
New

Hourly Weather History & Observations

Time (PST) Temp. Windchill Dew Point Humidity Pressure Visibility Wind Dir Wind Speed Gust Speed Precip Events Conditions
12:53 AM 48.9 °F - 23.0 °F 36% 30.15 in 10.0 mi ESE 5.8 mph - N/A   Clear
1:53 AM 45.0 °F 42.6 °F 25.0 °F 46% 30.15 in 10.0 mi East 4.6 mph - N/A   Clear
2:53 AM 50.0 °F - 21.0 °F 32% 30.14 in 10.0 mi ESE 4.6 mph - N/A   Clear
4:53 AM 57.9 °F - 16.0 °F 19% 30.13 in 10.0 mi NE 9.2 mph 17.3 mph N/A   Clear
5:53 AM 61.0 °F - 12.9 °F 15% 30.12 in 10.0 mi NE 11.5 mph 23.0 mph N/A   Clear
6:53 AM 55.0 °F - 16.0 °F 22% 30.15 in 10.0 mi ENE 6.9 mph - N/A   Clear
7:53 AM 61.0 °F - 14.0 °F 16% 30.16 in 10.0 mi ENE 10.4 mph 18.4 mph N/A   Clear
8:53 AM 64.0 °F - 16.0 °F 16% 30.18 in 10.0 mi East 9.2 mph - N/A   Clear
9:53 AM 68.0 °F - 15.1 °F 13% 30.17 in 10.0 mi East 10.4 mph - N/A   Clear
10:53 AM 71.1 °F - 9.0 °F 9% 30.15 in 10.0 mi NNE 17.3 mph 31.1 mph N/A   Clear
11:53 AM 73.0 °F - 10.0 °F 9% 30.11 in 10.0 mi NE 10.4 mph 25.3 mph N/A   Clear
12:53 PM 73.9 °F - 10.0 °F 9% 30.09 in 10.0 mi NNE 12.7 mph 26.5 mph N/A   Clear
1:53 PM 73.9 °F - 10.9 °F 9% 30.07 in 10.0 mi NNE 17.3 mph 27.6 mph N/A   Clear
2:53 PM 73.9 °F - 10.0 °F 9% 30.06 in 10.0 mi NNE 12.7 mph 25.3 mph N/A   Clear
3:53 PM 72.0 °F - 9.0 °F 9% 30.07 in 10.0 mi NNE 15.0 mph 25.3 mph N/A   Clear
4:53 PM 70.0 °F - 9.0 °F 9% 30.08 in 10.0 mi NE 12.7 mph 20.7 mph N/A   Clear
5:53 PM 66.9 °F - 8.1 °F 10% 30.10 in 10.0 mi NE 9.2 mph - N/A   Clear
6:53 PM 66.0 °F - 9.0 °F 11% 30.12 in 10.0 mi NE 6.9 mph - N/A   Clear
7:53 PM 64.0 °F - 10.9 °F 13% 30.13 in 10.0 mi Variable 3.5 mph - N/A   Clear
8:53 PM 60.1 °F - 12.0 °F 15% 30.13 in 10.0 mi East 4.6 mph - N/A   Clear
9:53 PM 59.0 °F - 14.0 °F 17% 30.13 in 10.0 mi Calm Calm - N/A   Clear
10:53 PM 54.0 °F - 18.0 °F 24% 30.14 in 10.0 mi ENE 3.5 mph - N/A   Clear
11:53 PM 52.0 °F - 19.0 °F 27% 30.14 in 10.0 mi East 4.6 mph - N/A   Clear